Location: *
(46.1006°N, 1.8394°E)
Time: 03:35:01
(UTC+00:00)

SJ-6B - Pass Details

Date: 20 September 2019
Orbit: 509 x 583 km, 97.6° (Epoch: 20 October)

Event Time Altitude Azimuth Distance (km) Brightness Sun altitude
Exits shadow 18:21:33 - 119° (ESE) 2,338 5.4 -5.4°
Reaches altitude 10° 18:22:57 10° 107° (ESE) 1,895 4.9 -5.7°
Maximum altitude 18:25:46 18° 64° (ENE) 1,439 4.5 -6.1°
Drops below altitude 10° 18:28:34 10° 21° (NNE) 1,887 5.4 -6.6°
Sets 18:31:13 0° 2° (N) 2,777 6.5 -7.1°
